Time,TemperatureF,DewpointF,PressureIn,WindDirection,WindDirectionDegrees,WindSpeedMPH,WindSpeedGustMPH,Humidity,HourlyPrecipIn,Conditions,Clouds,dailyrainin,SoftwareType,DateUTC
2013-03-03 00:01:00,23.7,6.0,30.18,SE,135,0.0,1.1,46,0.00,,---,0.00,VWS V14.01,2013-03-03 06:01:00,
2013-03-03 00:07:00,23.7,6.0,30.18,South,180,0.0,0.0,46,0.00,,---,0.00,VWS V14.01,2013-03-03 06:07:00,
2013-03-03 00:12:00,23.5,5.8,30.18,SSW,202,0.0,0.9,46,0.00,,---,0.00,VWS V14.01,2013-03-03 06:12:00,
2013-03-03 00:17:00,23.4,5.7,30.18,SSW,202,0.0,0.0,46,0.00,,---,0.00,VWS V14.01,2013-03-03 06:17:00,
2013-03-03 00:22:00,23.2,5.5,30.18,SSW,202,0.0,0.0,46,0.00,,---,0.00,VWS V14.01,2013-03-03 06:22:00,
2013-03-03 00:27:00,23.0,5.8,30.18,SSE,158,0.0,0.0,47,0.00,,---,0.00,VWS V14.01,2013-03-03 06:27:00,
2013-03-03 00:32:00,22.8,5.6,30.18,SSE,158,0.0,0.0,47,0.00,,---,0.00,VWS V14.01,2013-03-03 06:32:00,
2013-03-03 00:37:00,22.8,5.2,30.18,SSE,158,0.0,0.0,46,0.00,,---,0.00,VWS V14.01,2013-03-03 06:37:00,
2013-03-03 00:42:00,22.6,5.5,30.15,SSE,158,0.0,0.0,47,0.00,,---,0.00,VWS V14.01,2013-03-03 06:42:00,
2013-03-03 00:48:00,22.3,5.1,30.15,SSE,158,0.0,0.0,47,0.00,,---,0.00,VWS V14.01,2013-03-03 06:48:00,
2013-03-03 00:53:00,22.1,5.0,30.15,SSE,158,0.0,0.0,47,0.00,,---,0.00,VWS V14.01,2013-03-03 06:53:00,
2013-03-03 00:58:00,21.9,4.8,30.15,SSE,158,0.0,0.0,47,0.00,,---,0.00,VWS V14.01,2013-03-03 06:58:00,
2013-03-03 01:03:00,21.7,4.6,30.15,SSE,158,0.0,0.0,47,0.00,,---,0.00,VWS V14.01,2013-03-03 07:03:00,
2013-03-03 01:09:00,21.6,4.5,30.15,SSE,158,0.0,0.0,47,0.00,,---,0.00,VWS V14.01,2013-03-03 07:09:00,
2013-03-03 01:14:00,21.6,4.5,30.15,SSE,158,0.0,0.0,47,0.00,,---,0.00,VWS V14.01,2013-03-03 07:14:00,
2013-03-03 01:19:00,21.6,4.5,30.15,SSE,158,0.0,0.0,47,0.00,,---,0.00,VWS V14.01,2013-03-03 07:19:00,
2013-03-03 01:24:00,21.4,4.3,30.15,SSE,158,0.0,0.0,47,0.00,,---,0.00,VWS V14.01,2013-03-03 07:24:00,
2013-03-03 01:30:00,21.4,4.8,30.15,SSE,158,0.0,0.0,48,0.00,,---,0.00,VWS V14.01,2013-03-03 07:30:00,
2013-03-03 01:36:00,21.2,4.6,30.15,SSE,158,0.0,0.0,48,0.00,,---,0.00,VWS V14.01,2013-03-03 07:36:00,
2013-03-03 01:42:00,21.0,4.4,30.15,SSE,158,0.0,0.0,48,0.00,,---,0.00,VWS V14.01,2013-03-03 07:42:00,
2013-03-03 01:48:00,21.0,4.9,30.15,SSE,158,0.0,0.0,49,0.00,,---,0.00,VWS V14.01,2013-03-03 07:48:00,
2013-03-03 01:54:00,20.8,4.7,30.15,SSE,158,0.0,0.0,49,0.00,,---,0.00,VWS V14.01,2013-03-03 07:54:00,
2013-03-03 01:59:00,20.7,4.5,30.15,SSE,158,0.0,0.0,49,0.00,,---,0.00,VWS V14.01,2013-03-03 07:59:00,
2013-03-03 02:05:00,20.5,4.4,30.15,SSE,158,0.0,0.0,49,0.00,,---,0.00,VWS V14.01,2013-03-03 08:05:00,
2013-03-03 02:10:00,20.3,4.6,30.15,SSE,158,0.0,0.0,50,0.00,,---,0.00,VWS V14.01,2013-03-03 08:10:00,
2013-03-03 02:15:00,20.3,4.6,30.15,SSE,158,0.0,0.0,50,0.00,,---,0.00,VWS V14.01,2013-03-03 08:15:00,
2013-03-03 02:21:00,20.1,4.5,30.15,SSE,158,0.0,0.0,50,0.00,,---,0.00,VWS V14.01,2013-03-03 08:21:00,
2013-03-03 02:26:00,19.9,4.3,30.15,SSE,158,0.0,0.0,50,0.00,,---,0.00,VWS V14.01,2013-03-03 08:26:00,
2013-03-03 02:31:00,19.9,4.7,30.15,SSE,158,0.0,0.0,51,0.00,,---,0.00,VWS V14.01,2013-03-03 08:31:00,
2013-03-03 02:36:00,19.9,4.7,30.15,SSE,158,0.0,0.0,51,0.00,,---,0.00,VWS V14.01,2013-03-03 08:36:00,
2013-03-03 02:41:00,19.8,4.6,30.12,South,180,1.6,1.6,51,0.00,,---,0.00,VWS V14.01,2013-03-03 08:41:00,
2013-03-03 02:47:00,19.9,4.7,30.12,SSE,158,0.0,0.0,51,0.00,,---,0.00,VWS V14.01,2013-03-03 08:47:00,
2013-03-03 02:52:00,19.9,4.7,30.12,SE,135,0.0,0.0,51,0.00,,---,0.00,VWS V14.01,2013-03-03 08:52:00,
2013-03-03 02:57:00,19.9,4.7,30.12,ESE,112,0.0,0.0,51,0.00,,---,0.00,VWS V14.01,2013-03-03 08:57:00,
2013-03-03 03:02:00,19.9,4.7,30.12,SSE,158,0.0,0.0,51,0.00,,---,0.00,VWS V14.01,2013-03-03 09:02:00,
2013-03-03 03:08:00,19.9,4.7,30.12,SE,135,0.0,0.0,51,0.00,,---,0.00,VWS V14.01,2013-03-03 09:08:00,
2013-03-03 03:13:00,20.1,4.9,30.12,SSE,158,0.0,0.0,51,0.00,,---,0.00,VWS V14.01,2013-03-03 09:13:00,
2013-03-03 03:19:00,20.3,5.1,30.12,ESE,112,0.0,0.0,51,0.00,,---,0.00,VWS V14.01,2013-03-03 09:19:00,
2013-03-03 03:24:00,20.3,5.5,30.12,ESE,112,0.0,0.0,52,0.00,,---,0.00,VWS V14.01,2013-03-03 09:24:00,
2013-03-03 03:30:00,20.3,5.5,30.12,ESE,112,0.0,0.0,52,0.00,,---,0.00,VWS V14.01,2013-03-03 09:30:00,
2013-03-03 03:35:00,20.3,5.5,30.12,ESE,112,1.6,1.6,52,0.00,,---,0.00,VWS V14.01,2013-03-03 09:35:00,
2013-03-03 03:40:00,20.5,5.7,30.12,South,180,0.0,0.0,52,0.00,,---,0.00,VWS V14.01,2013-03-03 09:40:00,
2013-03-03 03:45:00,20.7,5.4,30.12,SSE,158,0.0,0.0,51,0.00,,---,0.00,VWS V14.01,2013-03-03 09:45:00,
2013-03-03 03:50:00,20.8,6.0,30.12,SSE,158,0.0,0.0,52,0.00,,---,0.00,VWS V14.01,2013-03-03 09:50:00,
2013-03-03 03:55:00,20.8,6.0,30.12,SSE,158,0.0,0.0,52,0.00,,---,0.00,VWS V14.01,2013-03-03 09:55:00,
2013-03-03 04:00:00,20.8,5.6,30.12,South,180,0.9,1.3,51,0.00,,---,0.00,VWS V14.01,2013-03-03 10:00:00,
2013-03-03 04:06:00,21.0,5.7,30.12,SE,135,0.0,0.0,51,0.00,,---,0.00,VWS V14.01,2013-03-03 10:06:00,
2013-03-03 04:12:00,21.0,5.7,30.12,SE,135,0.0,0.0,51,0.00,,---,0.00,VWS V14.01,2013-03-03 10:12:00,
2013-03-03 04:18:00,21.0,5.7,30.12,SSE,158,1.6,1.6,51,0.00,,---,0.00,VWS V14.01,2013-03-03 10:18:00,
2013-03-03 04:23:00,21.0,5.7,30.12,SE,135,0.0,0.0,51,0.00,,---,0.00,VWS V14.01,2013-03-03 10:23:00,
2013-03-03 04:28:00,21.0,5.7,30.12,ESE,112,1.3,1.3,51,0.00,,---,0.00,VWS V14.01,2013-03-03 10:28:00,
2013-03-03 04:33:00,20.8,5.6,30.12,East,90,0.0,0.0,51,0.00,,---,0.00,VWS V14.01,2013-03-03 10:33:00,
2013-03-03 04:39:00,20.8,5.1,30.12,East,90,2.0,2.0,50,0.00,,---,0.00,VWS V14.01,2013-03-03 10:39:00,
2013-03-03 04:45:00,20.8,5.1,30.12,SSE,158,0.0,0.0,50,0.00,,---,0.00,VWS V14.01,2013-03-03 10:45:00,
2013-03-03 04:50:00,20.7,5.0,30.12,SE,135,0.0,0.0,50,0.00,,---,0.00,VWS V14.01,2013-03-03 10:50:00,
2013-03-03 04:55:00,20.5,4.8,30.12,SE,135,1.6,2.0,50,0.00,,---,0.00,VWS V14.01,2013-03-03 10:55:00,
2013-03-03 05:00:00,20.5,4.8,30.12,SSE,158,2.0,2.0,50,0.00,,---,0.00,VWS V14.01,2013-03-03 11:00:00,
2013-03-03 05:05:00,20.3,5.1,30.12,SE,135,2.0,2.2,51,0.00,,---,0.00,VWS V14.01,2013-03-03 11:05:00,
2013-03-03 05:10:00,20.3,5.1,30.12,SE,135,0.0,1.3,51,0.00,,---,0.00,VWS V14.01,2013-03-03 11:10:00,
2013-03-03 05:16:00,20.1,4.9,30.12,ESE,112,0.0,1.3,51,0.00,,---,0.00,VWS V14.01,2013-03-03 11:16:00,
2013-03-03 05:21:00,19.9,4.7,30.12,ESE,112,0.0,1.3,51,0.00,,---,0.00,VWS V14.01,2013-03-03 11:21:00,
2013-03-03 05:26:00,19.9,4.7,30.12,East,90,2.7,2.7,51,0.00,,---,0.00,VWS V14.01,2013-03-03 11:26:00,
2013-03-03 05:31:00,19.8,5.0,30.12,ESE,112,1.3,2.0,52,0.00,,---,0.00,VWS V14.01,2013-03-03 11:31:00,
2013-03-03 05:36:00,19.6,4.8,30.12,ESE,112,2.2,2.2,52,0.00,,---,0.00,VWS V14.01,2013-03-03 11:36:00,
2013-03-03 05:42:00,19.6,4.8,30.12,ESE,112,2.9,2.9,52,0.00,,---,0.00,VWS V14.01,2013-03-03 11:42:00,
2013-03-03 05:47:00,19.4,5.1,30.12,ESE,112,0.0,2.7,53,0.00,,---,0.00,VWS V14.01,2013-03-03 11:47:00,
2013-03-03 05:52:00,19.4,5.1,30.12,ESE,112,0.0,0.0,53,0.00,,---,0.00,VWS V14.01,2013-03-03 11:52:00,
2013-03-03 05:58:00,19.4,5.5,30.12,ESE,112,0.0,0.0,54,0.00,,---,0.00,VWS V14.01,2013-03-03 11:58:00,
2013-03-03 06:04:00,19.2,5.3,30.12,ESE,112,2.5,2.5,54,0.00,,---,0.00,VWS V14.01,2013-03-03 12:04:00,
2013-03-03 06:09:00,19.2,5.3,30.12,ESE,112,1.1,2.0,54,0.00,,---,0.00,VWS V14.01,2013-03-03 12:09:00,
2013-03-03 06:14:00,19.2,5.3,30.12,ESE,112,1.6,1.6,54,0.00,,---,0.00,VWS V14.01,2013-03-03 12:14:00,
2013-03-03 06:20:00,19.2,5.7,30.12,SE,135,1.1,1.6,55,0.00,,---,0.00,VWS V14.01,2013-03-03 12:20:00,
2013-03-03 06:26:00,19.2,5.7,30.12,ESE,112,1.3,1.3,55,0.00,,---,0.00,VWS V14.01,2013-03-03 12:26:00,
2013-03-03 06:32:00,19.2,5.7,30.12,SE,135,2.0,2.0,55,0.00,,---,0.00,VWS V14.01,2013-03-03 12:32:00,
2013-03-03 06:38:00,19.2,5.7,30.12,ESE,112,0.0,2.5,55,0.00,,---,0.00,VWS V14.01,2013-03-03 12:38:00,
2013-03-03 06:43:00,19.2,5.7,30.12,SW,225,1.1,2.2,55,0.00,,---,0.00,VWS V14.01,2013-03-03 12:43:00,
2013-03-03 06:49:00,19.2,5.7,30.12,ESE,112,1.3,2.0,55,0.00,,---,0.00,VWS V14.01,2013-03-03 12:49:00,
2013-03-03 06:55:00,19.2,5.7,30.12,East,90,2.5,2.7,55,0.00,,---,0.00,VWS V14.01,2013-03-03 12:55:00,
2013-03-03 07:00:00,19.4,5.9,30.12,SSE,158,1.3,2.2,55,0.00,,---,0.00,VWS V14.01,2013-03-03 13:00:00,
2013-03-03 07:06:00,19.4,5.9,30.12,SE,135,2.0,2.2,55,0.00,,---,0.00,VWS V14.01,2013-03-03 13:06:00,
2013-03-03 07:11:00,19.6,5.7,30.12,SE,135,2.9,4.0,54,0.00,,---,0.00,VWS V14.01,2013-03-03 13:11:00,
2013-03-03 07:17:00,19.8,5.8,30.12,ESE,112,2.0,2.5,54,0.00,,---,0.00,VWS V14.01,2013-03-03 13:17:00,
2013-03-03 07:22:00,19.8,5.8,30.12,SE,135,3.8,3.8,54,0.00,,---,0.00,VWS V14.01,2013-03-03 13:22:00,
2013-03-03 07:27:00,19.9,6.0,30.12,ESE,112,2.9,3.4,54,0.00,,---,0.00,VWS V14.01,2013-03-03 13:27:00,
2013-03-03 07:33:00,20.1,6.2,30.12,East,90,1.3,1.3,54,0.00,,---,0.00,VWS V14.01,2013-03-03 13:33:00,
2013-03-03 07:38:00,20.3,6.3,30.12,SSE,158,2.0,3.8,54,0.00,,---,0.00,VWS V14.01,2013-03-03 13:38:00,
2013-03-03 07:44:00,20.5,6.5,30.12,SW,225,3.4,3.4,54,0.00,,---,0.00,VWS V14.01,2013-03-03 13:44:00,
2013-03-03 07:49:00,20.5,6.5,30.12,SE,135,3.1,4.0,54,0.00,,---,0.00,VWS V14.01,2013-03-03 13:49:00,
2013-03-03 07:55:00,20.7,6.2,30.12,SE,135,1.1,4.0,53,0.00,,---,0.00,VWS V14.01,2013-03-03 13:55:00,
2013-03-03 08:00:00,20.8,6.4,30.12,ESE,112,2.5,2.7,53,0.00,,---,0.00,VWS V14.01,2013-03-03 14:00:00,
2013-03-03 08:06:00,21.2,6.8,30.12,SSE,158,2.0,3.1,53,0.00,,---,0.00,VWS V14.01,2013-03-03 14:06:00,
2013-03-03 08:11:00,21.6,7.1,30.12,SE,135,2.5,2.5,53,0.00,,---,0.00,VWS V14.01,2013-03-03 14:11:00,
2013-03-03 08:16:00,22.5,7.9,30.12,SSE,158,2.0,2.2,53,0.00,,---,0.00,VWS V14.01,2013-03-03 14:16:00,
2013-03-03 08:22:00,23.0,8.0,30.12,ENE,68,1.1,3.1,52,0.00,,---,0.00,VWS V14.01,2013-03-03 14:22:00,
2013-03-03 08:27:00,23.9,8.9,30.12,ESE,112,2.5,2.5,52,0.00,,---,0.00,VWS V14.01,2013-03-03 14:27:00,
2013-03-03 08:33:00,23.9,8.0,30.12,ENE,68,2.0,2.5,50,0.00,,---,0.00,VWS V14.01,2013-03-03 14:33:00,
2013-03-03 08:38:00,23.9,8.0,30.12,SE,135,4.3,4.3,50,0.00,,---,0.00,VWS V14.01,2013-03-03 14:38:00,
2013-03-03 08:45:00,24.4,7.6,30.12,NE,45,1.6,2.9,48,0.00,,---,0.00,VWS V14.01,2013-03-03 14:45:00,
2013-03-03 08:50:00,25.3,8.9,30.12,East,90,1.3,2.2,49,0.00,,---,0.00,VWS V14.01,2013-03-03 14:50:00,
2013-03-03 08:55:00,25.5,8.6,30.12,SE,135,3.8,3.8,48,0.00,,---,0.00,VWS V14.01,2013-03-03 14:55:00,
2013-03-03 09:00:00,26.6,9.6,30.12,SE,135,1.3,3.1,48,0.00,,---,0.00,VWS V14.01,2013-03-03 15:00:00,
2013-03-03 09:05:00,28.2,11.1,30.12,SW,225,1.6,3.1,48,0.00,,---,0.00,VWS V14.01,2013-03-03 15:05:00,
2013-03-03 09:10:00,27.7,9.1,30.12,ESE,112,1.6,2.5,45,0.00,,---,0.00,VWS V14.01,2013-03-03 15:10:00,
2013-03-03 09:15:00,28.9,10.3,30.12,South,180,2.7,3.1,45,0.00,,---,0.00,VWS V14.01,2013-03-03 15:15:00,
2013-03-03 09:21:00,29.8,10.6,30.12,SE,135,2.7,4.0,44,0.00,,---,0.00,VWS V14.01,2013-03-03 15:21:00,
2013-03-03 09:26:00,31.1,11.8,30.12,SE,135,1.6,2.9,44,0.00,,---,0.00,VWS V14.01,2013-03-03 15:26:00,
2013-03-03 09:31:00,32.2,12.7,30.12,SSE,158,3.4,3.8,44,0.00,,---,0.00,VWS V14.01,2013-03-03 15:31:00,
2013-03-03 09:36:00,31.5,11.0,30.12,SE,135,2.0,4.0,42,0.00,,---,0.00,VWS V14.01,2013-03-03 15:36:00,
2013-03-03 09:41:00,33.1,13.0,30.12,ESE,112,1.6,3.8,43,0.00,,---,0.00,VWS V14.01,2013-03-03 15:41:00,
2013-03-03 09:46:00,34.0,13.9,30.12,SSE,158,1.3,2.0,43,0.00,,---,0.00,VWS V14.01,2013-03-03 15:46:00,
2013-03-03 09:51:00,32.2,11.7,30.12,SE,135,3.6,7.4,42,0.00,,---,0.00,VWS V14.01,2013-03-03 15:51:00,
2013-03-03 09:56:00,32.7,12.2,30.12,SSE,158,5.4,5.4,42,0.00,,---,0.00,VWS V14.01,2013-03-03 15:56:00,
2013-03-03 10:01:00,33.3,12.1,30.12,SSE,158,3.6,3.8,41,0.00,,---,0.00,VWS V14.01,2013-03-03 16:01:00,
2013-03-03 10:06:00,33.1,12.0,30.12,SSE,158,3.1,4.3,41,0.00,,---,0.00,VWS V14.01,2013-03-03 16:06:00,
2013-03-03 10:11:00,33.8,12.6,30.12,SSE,158,4.0,4.7,41,0.00,,---,0.00,VWS V14.01,2013-03-03 16:11:00,
2013-03-03 10:16:00,33.4,12.3,30.12,SE,135,4.5,4.5,41,0.00,,---,0.00,VWS V14.01,2013-03-03 16:16:00,
2013-03-03 10:21:00,34.3,13.1,30.12,SSW,202,4.9,4.9,41,0.00,,---,0.00,VWS V14.01,2013-03-03 16:21:00,
2013-03-03 10:26:00,34.2,12.9,30.12,SE,135,4.0,4.3,41,0.00,,---,0.00,VWS V14.01,2013-03-03 16:26:00,
2013-03-03 10:31:00,34.5,12.7,30.12,SE,135,2.7,3.8,40,0.00,,---,0.00,VWS V14.01,2013-03-03 16:31:00,
2013-03-03 10:36:00,34.3,12.5,30.12,SSE,158,3.6,3.8,40,0.00,,---,0.00,VWS V14.01,2013-03-03 16:36:00,
2013-03-03 10:41:00,34.2,12.4,30.09,East,90,2.5,4.7,40,0.00,,---,0.00,VWS V14.01,2013-03-03 16:41:00,
2013-03-03 10:46:00,34.0,12.2,30.09,East,90,3.4,3.4,40,0.00,,---,0.00,VWS V14.01,2013-03-03 16:46:00,
2013-03-03 10:51:00,33.4,11.7,30.09,South,180,4.0,6.3,40,0.00,,---,0.00,VWS V14.01,2013-03-03 16:51:00,
2013-03-03 10:56:00,34.2,12.4,30.09,SE,135,2.7,4.9,40,0.00,,---,0.00,VWS V14.01,2013-03-03 16:56:00,
2013-03-03 11:02:00,33.8,12.1,30.09,East,90,3.1,3.4,40,0.00,,---,0.00,VWS V14.01,2013-03-03 17:02:00,
2013-03-03 11:07:00,33.3,12.1,30.09,ESE,112,1.1,2.0,41,0.00,,---,0.00,VWS V14.01,2013-03-03 17:07:00,
2013-03-03 11:12:00,32.7,11.1,30.09,SSE,158,2.9,4.0,40,0.00,,---,0.00,VWS V14.01,2013-03-03 17:12:00,
2013-03-03 11:17:00,32.2,10.6,30.09,East,90,3.4,4.3,40,0.00,,---,0.00,VWS V14.01,2013-03-03 17:17:00,
2013-03-03 11:22:00,32.2,10.6,30.09,ESE,112,2.5,3.6,40,0.00,,---,0.00,VWS V14.01,2013-03-03 17:22:00,
2013-03-03 11:27:00,32.2,10.6,30.09,ENE,68,3.1,5.8,40,0.00,,---,0.00,VWS V14.01,2013-03-03 17:27:00,
2013-03-03 11:32:00,32.2,11.1,30.09,ESE,112,2.7,3.8,41,0.00,,---,0.00,VWS V14.01,2013-03-03 17:32:00,
2013-03-03 11:37:00,32.5,11.5,30.09,ESE,112,2.7,2.9,41,0.00,,---,0.00,VWS V14.01,2013-03-03 17:37:00,
2013-03-03 11:42:00,32.9,11.8,30.09,SSE,158,3.4,3.4,41,0.00,,---,0.00,VWS V14.01,2013-03-03 17:42:00,
2013-03-03 11:47:00,33.3,12.1,30.09,SE,135,3.8,5.4,41,0.00,,---,0.00,VWS V14.01,2013-03-03 17:47:00,
2013-03-03 11:52:00,33.1,12.0,30.09,SE,135,4.3,4.3,41,0.00,,---,0.00,VWS V14.01,2013-03-03 17:52:00,
2013-03-03 11:57:00,33.8,12.1,30.09,SE,135,3.6,3.6,40,0.00,,---,0.00,VWS V14.01,2013-03-03 17:57:00,
2013-03-03 12:02:00,34.5,12.7,30.09,SSE,158,1.6,2.9,40,0.00,,---,0.00,VWS V14.01,2013-03-03 18:02:00,
2013-03-03 12:07:00,34.9,13.0,30.09,ESE,112,2.5,3.4,40,0.00,,---,0.00,VWS V14.01,2013-03-03 18:07:00,
2013-03-03 12:12:00,34.9,13.0,30.09,SSW,202,2.5,2.5,40,0.00,,---,0.00,VWS V14.01,2013-03-03 18:12:00,
2013-03-03 12:17:00,34.9,13.0,30.09,ENE,68,2.5,3.1,40,0.00,,---,0.00,VWS V14.01,2013-03-03 18:17:00,
2013-03-03 12:22:00,35.2,13.4,30.09,NW,315,2.5,3.8,40,0.00,,---,0.00,VWS V14.01,2013-03-03 18:22:00,
2013-03-03 12:27:00,35.1,13.2,30.06,SSE,158,4.3,4.3,40,0.00,,---,0.00,VWS V14.01,2013-03-03 18:27:00,
2013-03-03 12:32:00,35.2,13.4,30.06,South,180,2.2,2.7,40,0.00,,---,0.00,VWS V14.01,2013-03-03 18:32:00,
2013-03-03 12:37:00,35.6,13.7,30.06,SE,135,2.0,5.6,40,0.00,,---,0.00,VWS V14.01,2013-03-03 18:37:00,
2013-03-03 12:42:00,35.4,13.5,30.06,ENE,68,1.6,3.1,40,0.00,,---,0.00,VWS V14.01,2013-03-03 18:42:00,
2013-03-03 12:47:00,35.8,13.8,30.06,ENE,68,2.7,2.7,40,0.00,,---,0.00,VWS V14.01,2013-03-03 18:47:00,
2013-03-03 12:52:00,35.6,13.1,30.06,SE,135,3.1,6.5,39,0.00,,---,0.00,VWS V14.01,2013-03-03 18:52:00,
2013-03-03 12:57:00,36.0,14.0,30.06,ENE,68,3.1,4.0,40,0.00,,---,0.00,VWS V14.01,2013-03-03 18:57:00,
2013-03-03 13:02:00,35.4,13.5,30.06,ESE,112,3.6,5.4,40,0.00,,---,0.00,VWS V14.01,2013-03-03 19:02:00,
2013-03-03 13:07:00,35.4,13.5,30.06,East,90,2.5,2.5,40,0.00,,---,0.00,VWS V14.01,2013-03-03 19:07:00,
2013-03-03 13:12:00,35.2,13.4,30.06,South,180,3.1,5.4,40,0.00,,---,0.00,VWS V14.01,2013-03-03 19:12:00,
2013-03-03 13:17:00,35.4,13.5,30.06,SSE,158,3.6,3.8,40,0.00,,---,0.00,VWS V14.01,2013-03-03 19:17:00,
2013-03-03 13:22:00,35.8,13.8,30.06,East,90,2.2,3.8,40,0.00,,---,0.00,VWS V14.01,2013-03-03 19:22:00,
2013-03-03 13:27:00,35.6,13.7,30.06,SSE,158,3.1,4.7,40,0.00,,---,0.00,VWS V14.01,2013-03-03 19:27:00,
2013-03-03 13:32:00,35.2,13.4,30.06,SE,135,2.0,3.8,40,0.00,,---,0.00,VWS V14.01,2013-03-03 19:32:00,
2013-03-03 13:37:00,35.8,13.8,30.06,SSE,158,4.7,4.7,40,0.00,,---,0.00,VWS V14.01,2013-03-03 19:37:00,
2013-03-03 13:42:00,35.4,13.5,30.06,SSE,158,3.4,3.4,40,0.00,,---,0.00,VWS V14.01,2013-03-03 19:42:00,
2013-03-03 13:47:00,35.1,13.2,30.06,ENE,68,0.9,4.7,40,0.00,,---,0.00,VWS V14.01,2013-03-03 19:47:00,
2013-03-03 13:53:00,34.9,13.0,30.06,ESE,112,1.6,3.8,40,0.00,,---,0.00,VWS V14.01,2013-03-03 19:53:00,
2013-03-03 13:58:00,34.7,12.9,30.03,SSE,158,3.1,4.3,40,0.00,,---,0.00,VWS V14.01,2013-03-03 19:58:00,
2013-03-03 14:03:00,34.5,12.7,30.03,ESE,112,3.4,3.4,40,0.00,,---,0.00,VWS V14.01,2013-03-03 20:03:00,
2013-03-03 14:09:00,34.5,12.7,30.03,East,90,5.8,6.0,40,0.00,,---,0.00,VWS V14.01,2013-03-03 20:09:00,
2013-03-03 14:14:00,34.5,12.7,30.03,East,90,2.5,3.6,40,0.00,,---,0.00,VWS V14.01,2013-03-03 20:14:00,
2013-03-03 14:19:00,34.3,12.5,30.03,South,180,2.9,4.7,40,0.00,,---,0.00,VWS V14.01,2013-03-03 20:19:00,
2013-03-03 14:24:00,34.2,12.4,30.03,ENE,68,0.9,2.7,40,0.00,,---,0.00,VWS V14.01,2013-03-03 20:24:00,
2013-03-03 14:29:00,34.2,12.4,30.03,East,90,2.7,2.9,40,0.00,,---,0.00,VWS V14.01,2013-03-03 20:29:00,
2013-03-03 14:34:00,34.2,12.4,30.03,South,180,1.6,4.0,40,0.00,,---,0.00,VWS V14.01,2013-03-03 20:34:00,
2013-03-03 14:39:00,34.0,12.2,30.03,East,90,2.7,4.0,40,0.00,,---,0.00,VWS V14.01,2013-03-03 20:39:00,
2013-03-03 14:44:00,33.8,12.1,30.03,SE,135,3.4,3.8,40,0.00,,---,0.00,VWS V14.01,2013-03-03 20:44:00,
2013-03-03 14:50:00,33.4,11.7,30.03,SE,135,2.0,3.1,40,0.00,,---,0.00,VWS V14.01,2013-03-03 20:50:00,
2013-03-03 14:55:00,33.6,11.9,30.03,SSE,158,2.5,4.3,40,0.00,,---,0.00,VWS V14.01,2013-03-03 20:55:00,
2013-03-03 15:00:00,33.4,11.7,30.03,ESE,112,2.5,3.4,40,0.00,,---,0.00,VWS V14.01,2013-03-03 21:00:00,
2013-03-03 15:05:00,33.6,11.9,30.03,SE,135,4.0,4.3,40,0.00,,---,0.00,VWS V14.01,2013-03-03 21:05:00,
2013-03-03 15:11:00,33.4,11.7,30.03,East,90,2.7,3.1,40,0.00,,---,0.00,VWS V14.01,2013-03-03 21:11:00,
2013-03-03 15:16:00,33.3,11.6,30.03,ESE,112,3.1,4.9,40,0.00,,---,0.00,VWS V14.01,2013-03-03 21:16:00,
2013-03-03 15:21:00,33.3,11.6,30.03,South,180,2.2,3.6,40,0.00,,---,0.00,VWS V14.01,2013-03-03 21:21:00,
2013-03-03 15:26:00,33.6,11.9,30.03,ESE,112,2.5,5.8,40,0.00,,---,0.00,VWS V14.01,2013-03-03 21:26:00,
2013-03-03 15:31:00,33.6,11.9,30.03,South,180,5.8,5.8,40,0.00,,---,0.00,VWS V14.01,2013-03-03 21:31:00,
2013-03-03 15:37:00,33.4,11.7,30.03,SSE,158,4.3,4.9,40,0.00,,---,0.00,VWS V14.01,2013-03-03 21:37:00,
2013-03-03 15:42:00,33.4,11.2,30.03,South,180,2.7,3.6,39,0.00,,---,0.00,VWS V14.01,2013-03-03 21:42:00,
2013-03-03 15:47:00,33.3,11.0,30.03,South,180,1.1,6.5,39,0.00,,---,0.00,VWS V14.01,2013-03-03 21:47:00,
2013-03-03 15:52:00,33.1,10.8,30.03,SE,135,3.1,4.9,39,0.00,,---,0.00,VWS V14.01,2013-03-03 21:52:00,
2013-03-03 15:57:00,33.1,10.8,30.03,South,180,2.9,6.0,39,0.00,,---,0.00,VWS V14.01,2013-03-03 21:57:00,
2013-03-03 16:02:00,33.1,10.8,30.03,SSE,158,3.8,6.7,39,0.00,,---,0.00,VWS V14.01,2013-03-03 22:02:00,
2013-03-03 16:07:00,32.9,10.7,30.03,South,180,4.7,4.7,39,0.00,,---,0.00,VWS V14.01,2013-03-03 22:07:00,
2013-03-03 16:13:00,32.9,10.7,30.03,SSE,158,3.1,3.1,39,0.00,,---,0.00,VWS V14.01,2013-03-03 22:13:00,
2013-03-03 16:18:00,32.9,10.7,30.03,ESE,112,6.0,6.0,39,0.00,,---,0.00,VWS V14.01,2013-03-03 22:18:00,
2013-03-03 16:24:00,32.7,11.1,30.03,ESE,112,0.9,0.9,40,0.00,,---,0.00,VWS V14.01,2013-03-03 22:24:00,
2013-03-03 16:29:00,32.7,11.1,30.03,ENE,68,2.9,4.3,40,0.00,,---,0.00,VWS V14.01,2013-03-03 22:29:00,
2013-03-03 16:34:00,32.5,10.9,30.03,SE,135,2.9,3.4,40,0.00,,---,0.00,VWS V14.01,2013-03-03 22:34:00,
2013-03-03 16:39:00,32.5,10.9,30.03,ESE,112,3.8,5.8,40,0.00,,---,0.00,VWS V14.01,2013-03-03 22:39:00,
2013-03-03 16:44:00,32.4,10.8,30.00,SE,135,3.6,3.6,40,0.00,,---,0.00,VWS V14.01,2013-03-03 22:44:00,
2013-03-03 16:49:00,32.2,10.6,30.00,SE,135,2.5,4.0,40,0.00,,---,0.00,VWS V14.01,2013-03-03 22:49:00,
2013-03-03 16:54:00,32.0,10.4,30.00,NE,45,3.1,3.1,40,0.00,,---,0.00,VWS V14.01,2013-03-03 22:54:00,
2013-03-03 16:59:00,31.8,10.3,30.00,SSE,158,2.0,3.1,40,0.00,,---,0.00,VWS V14.01,2013-03-03 22:59:00,
2013-03-03 17:05:00,31.8,10.3,30.00,East,90,2.2,3.4,40,0.00,,---,0.00,VWS V14.01,2013-03-03 23:05:00,
2013-03-03 17:10:00,31.6,10.1,30.00,SSE,158,3.1,3.1,40,0.00,,---,0.00,VWS V14.01,2013-03-03 23:10:00,
2013-03-03 17:15:00,31.5,9.9,30.00,NW,315,2.5,2.5,40,0.00,,---,0.00,VWS V14.01,2013-03-03 23:15:00,
2013-03-03 17:20:00,31.3,9.8,30.00,SE,135,4.0,4.9,40,0.00,,---,0.00,VWS V14.01,2013-03-03 23:20:00,
2013-03-03 17:26:00,31.1,9.6,30.00,ESE,112,3.6,6.0,40,0.00,,---,0.00,VWS V14.01,2013-03-03 23:26:00,
2013-03-03 17:31:00,31.1,9.6,30.00,ESE,112,2.9,6.0,40,0.00,,---,0.00,VWS V14.01,2013-03-03 23:31:00,
2013-03-03 17:36:00,30.9,9.4,30.00,East,90,1.6,4.0,40,0.00,,---,0.00,VWS V14.01,2013-03-03 23:36:00,
2013-03-03 17:41:00,30.7,9.3,30.00,SSE,158,2.0,2.7,40,0.00,,---,0.00,VWS V14.01,2013-03-03 23:41:00,
2013-03-03 17:46:00,30.6,9.1,30.00,ESE,112,2.5,3.6,40,0.00,,---,0.00,VWS V14.01,2013-03-03 23:46:00,
2013-03-03 17:51:00,30.4,9.0,30.00,ESE,112,3.1,3.1,40,0.00,,---,0.00,VWS V14.01,2013-03-03 23:51:00,
2013-03-03 17:56:00,30.2,9.4,30.00,ENE,68,3.1,4.0,41,0.00,,---,0.00,VWS V14.01,2013-03-03 23:56:00,
2013-03-03 18:01:00,30.2,9.4,30.00,ENE,68,1.3,2.5,41,0.00,,---,0.00,VWS V14.01,2013-03-04 00:01:00,
2013-03-03 18:06:00,30.0,9.2,30.00,ENE,68,0.9,3.8,41,0.00,,---,0.00,VWS V14.01,2013-03-04 00:06:00,
2013-03-03 18:12:00,29.8,9.0,30.00,SSE,158,3.6,5.4,41,0.00,,---,0.00,VWS V14.01,2013-03-04 00:12:00,
2013-03-03 18:17:00,29.8,9.0,30.00,SE,135,2.9,2.9,41,0.00,,---,0.00,VWS V14.01,2013-03-04 00:17:00,
2013-03-03 18:22:00,29.7,8.9,30.00,ESE,112,2.2,2.2,41,0.00,,---,0.00,VWS V14.01,2013-03-04 00:22:00,
2013-03-03 18:28:00,29.5,8.7,30.00,ESE,112,0.0,2.0,41,0.00,,---,0.00,VWS V14.01,2013-03-04 00:28:00,
2013-03-03 18:33:00,29.5,8.7,30.00,ESE,112,2.2,2.5,41,0.00,,---,0.00,VWS V14.01,2013-03-04 00:33:00,
2013-03-03 18:39:00,29.3,8.5,30.00,SE,135,0.0,2.5,41,0.00,,---,0.00,VWS V14.01,2013-03-04 00:39:00,
2013-03-03 18:44:00,29.1,8.9,30.03,East,90,1.1,2.2,42,0.00,,---,0.00,VWS V14.01,2013-03-04 00:44:00,
2013-03-03 18:49:00,29.1,8.9,30.03,South,180,2.2,3.8,42,0.00,,---,0.00,VWS V14.01,2013-03-04 00:49:00,
2013-03-03 18:54:00,28.9,8.7,30.03,ENE,68,2.0,4.3,42,0.00,,---,0.00,VWS V14.01,2013-03-04 00:54:00,
2013-03-03 18:59:00,28.9,8.2,30.03,East,90,1.3,2.7,41,0.00,,---,0.00,VWS V14.01,2013-03-04 00:59:00,
2013-03-03 19:04:00,28.8,8.0,30.03,ESE,112,2.5,2.5,41,0.00,,---,0.00,VWS V14.01,2013-03-04 01:04:00,
2013-03-03 19:09:00,28.8,8.0,30.03,ENE,68,3.6,3.6,41,0.00,,---,0.00,VWS V14.01,2013-03-04 01:09:00,
2013-03-03 19:15:00,28.6,7.9,30.03,SE,135,4.3,4.7,41,0.00,,---,0.00,VWS V14.01,2013-03-04 01:15:00,
2013-03-03 19:21:00,28.6,7.9,30.03,ESE,112,3.1,3.1,41,0.00,,---,0.00,VWS V14.01,2013-03-04 01:21:00,
2013-03-03 19:26:00,28.4,7.7,30.03,ESE,112,1.3,1.6,41,0.00,,---,0.00,VWS V14.01,2013-03-04 01:26:00,
2013-03-03 19:31:00,28.4,7.7,30.03,SE,135,3.8,6.0,41,0.00,,---,0.00,VWS V14.01,2013-03-04 01:31:00,
2013-03-03 19:36:00,28.4,7.7,30.03,SE,135,2.5,3.6,41,0.00,,---,0.00,VWS V14.01,2013-03-04 01:36:00,
2013-03-03 19:41:00,28.4,7.7,30.03,SSE,158,2.7,3.1,41,0.00,,---,0.00,VWS V14.01,2013-03-04 01:41:00,
2013-03-03 19:46:00,28.4,7.7,30.03,ESE,112,3.1,3.6,41,0.00,,---,0.00,VWS V14.01,2013-03-04 01:46:00,
2013-03-03 19:52:00,28.2,7.6,30.03,SSE,158,3.6,4.7,41,0.00,,---,0.00,VWS V14.01,2013-03-04 01:52:00,
2013-03-03 19:57:00,28.4,7.2,30.03,ESE,112,2.2,4.9,40,0.00,,---,0.00,VWS V14.01,2013-03-04 01:57:00,
2013-03-03 20:02:00,28.2,7.0,30.03,ESE,112,2.7,4.0,40,0.00,,---,0.00,VWS V14.01,2013-03-04 02:02:00,
2013-03-03 20:07:00,28.2,7.0,30.03,ESE,112,3.6,3.6,40,0.00,,---,0.00,VWS V14.01,2013-03-04 02:07:00,
2013-03-03 20:12:00,28.2,7.0,30.00,SE,135,2.9,3.6,40,0.00,,---,0.00,VWS V14.01,2013-03-04 02:12:00,
2013-03-03 20:18:00,28.2,7.0,30.00,SE,135,0.9,3.4,40,0.00,,---,0.00,VWS V14.01,2013-03-04 02:18:00,
2013-03-03 20:23:00,28.0,6.3,30.00,NNW,338,2.9,6.5,39,0.00,,---,0.00,VWS V14.01,2013-03-04 02:23:00,
2013-03-03 20:29:00,28.0,6.3,30.03,ESE,112,2.2,4.7,39,0.00,,---,0.00,VWS V14.01,2013-03-04 02:29:00,
2013-03-03 20:34:00,28.0,6.3,30.03,ESE,112,3.4,6.7,39,0.00,,---,0.00,VWS V14.01,2013-03-04 02:34:00,
2013-03-03 20:39:00,28.0,6.3,30.03,East,90,3.4,3.4,39,0.00,,---,0.00,VWS V14.01,2013-03-04 02:39:00,
2013-03-03 20:44:00,27.9,6.1,30.03,ESE,112,1.6,3.4,39,0.00,,---,0.00,VWS V14.01,2013-03-04 02:44:00,
2013-03-03 20:49:00,27.9,6.1,30.03,SE,135,2.0,2.9,39,0.00,,---,0.00,VWS V14.01,2013-03-04 02:49:00,
2013-03-03 20:54:00,27.9,6.7,30.03,SE,135,2.0,2.5,40,0.00,,---,0.00,VWS V14.01,2013-03-04 02:54:00,
2013-03-03 20:59:00,27.9,6.7,30.03,SE,135,1.6,1.6,40,0.00,,---,0.00,VWS V14.01,2013-03-04 02:59:00,
2013-03-03 21:05:00,27.9,6.7,30.03,ESE,112,5.4,5.4,40,0.00,,---,0.00,VWS V14.01,2013-03-04 03:05:00,
2013-03-03 21:10:00,27.9,6.7,30.03,ESE,112,3.8,4.3,40,0.00,,---,0.00,VWS V14.01,2013-03-04 03:10:00,
2013-03-03 21:15:00,27.9,6.1,30.03,SE,135,4.9,6.5,39,0.00,,---,0.00,VWS V14.01,2013-03-04 03:15:00,
2013-03-03 21:21:00,27.9,6.1,30.03,SE,135,4.0,4.0,39,0.00,,---,0.00,VWS V14.01,2013-03-04 03:21:00,
2013-03-03 21:26:00,27.9,6.1,30.03,ESE,112,2.5,4.0,39,0.00,,---,0.00,VWS V14.01,2013-03-04 03:26:00,
2013-03-03 21:31:00,27.7,6.5,30.03,ESE,112,2.9,3.4,40,0.00,,---,0.00,VWS V14.01,2013-03-04 03:31:00,
2013-03-03 21:36:00,27.7,6.5,30.03,SE,135,2.9,2.9,40,0.00,,---,0.00,VWS V14.01,2013-03-04 03:36:00,
2013-03-03 21:42:00,27.7,6.5,30.03,SE,135,2.5,3.6,40,0.00,,---,0.00,VWS V14.01,2013-03-04 03:42:00,
2013-03-03 21:47:00,27.7,6.5,30.03,SSE,158,2.5,2.5,40,0.00,,---,0.00,VWS V14.01,2013-03-04 03:47:00,
2013-03-03 21:52:00,27.7,6.5,30.03,East,90,2.5,3.4,40,0.00,,---,0.00,VWS V14.01,2013-03-04 03:52:00,
2013-03-03 21:57:00,27.7,6.5,30.00,SE,135,3.6,3.6,40,0.00,,---,0.00,VWS V14.01,2013-03-04 03:57:00,
2013-03-03 22:03:00,27.7,6.5,30.00,SE,135,3.4,3.4,40,0.00,,---,0.00,VWS V14.01,2013-03-04 04:03:00,
2013-03-03 22:08:00,27.7,6.5,30.00,ESE,112,2.7,3.1,40,0.00,,---,0.00,VWS V14.01,2013-03-04 04:08:00,
2013-03-03 22:13:00,27.7,6.5,30.00,SE,135,3.1,4.3,40,0.00,,---,0.00,VWS V14.01,2013-03-04 04:13:00,
2013-03-03 22:19:00,27.5,6.4,30.00,ESE,112,2.9,6.0,40,0.00,,---,0.00,VWS V14.01,2013-03-04 04:19:00,
2013-03-03 22:24:00,27.5,6.4,30.00,ESE,112,8.7,8.7,40,0.00,,---,0.00,VWS V14.01,2013-03-04 04:24:00,
2013-03-03 22:29:00,27.5,6.4,30.00,East,90,4.9,4.9,40,0.00,,---,0.00,VWS V14.01,2013-03-04 04:29:00,
2013-03-03 22:34:00,27.5,6.4,30.00,SSE,158,3.6,4.9,40,0.00,,---,0.00,VWS V14.01,2013-03-04 04:34:00,
2013-03-03 22:39:00,27.3,6.2,30.00,ESE,112,3.6,3.6,40,0.00,,---,0.00,VWS V14.01,2013-03-04 04:39:00,
2013-03-03 22:45:00,27.3,6.2,30.00,ESE,112,2.7,2.9,40,0.00,,---,0.00,VWS V14.01,2013-03-04 04:45:00,
2013-03-03 22:50:00,27.3,6.2,30.00,ESE,112,1.3,2.0,40,0.00,,---,0.00,VWS V14.01,2013-03-04 04:50:00,
2013-03-03 22:56:00,27.3,6.2,30.00,East,90,2.9,2.9,40,0.00,,---,0.00,VWS V14.01,2013-03-04 04:56:00,
2013-03-03 23:00:00,27.3,6.2,30.00,SE,135,3.1,3.1,40,0.00,,---,0.00,VWS V14.01,2013-03-04 05:00:00,
2013-03-03 23:01:00,27.3,6.2,30.00,ESE,112,1.1,4.0,40,0.00,,---,0.00,VWS V14.01,2013-03-04 05:01:00,
2013-03-03 23:06:00,27.3,6.2,30.00,NE,45,1.6,2.9,40,0.00,,---,0.00,VWS V14.01,2013-03-04 05:06:00,
2013-03-03 23:07:00,27.3,6.2,30.00,East,90,5.8,6.0,40,0.00,,---,0.00,VWS V14.01,2013-03-04 05:07:00,
2013-03-03 23:12:00,27.3,6.2,30.00,East,90,1.1,5.4,40,0.00,,---,0.00,VWS V14.01,2013-03-04 05:12:00,
2013-03-03 23:17:00,27.3,6.2,30.00,SE,135,2.5,3.6,40,0.00,,---,0.00,VWS V14.01,2013-03-04 05:17:00,
2013-03-03 23:22:00,27.3,6.2,30.00,ESE,112,2.7,6.3,40,0.00,,---,0.00,VWS V14.01,2013-03-04 05:22:00,
2013-03-03 23:27:00,27.3,6.2,30.00,South,180,4.0,4.5,40,0.00,,---,0.00,VWS V14.01,2013-03-04 05:27:00,
2013-03-03 23:32:00,27.1,6.0,30.00,ESE,112,2.9,4.9,40,0.00,,---,0.00,VWS V14.01,2013-03-04 05:32:00,
2013-03-03 23:38:00,27.1,6.0,30.00,SE,135,3.4,3.6,40,0.00,,---,0.00,VWS V14.01,2013-03-04 05:38:00,
2013-03-03 23:43:00,27.1,6.0,30.00,East,90,2.2,4.3,40,0.00,,---,0.00,VWS V14.01,2013-03-04 05:43:00,
2013-03-03 23:48:00,27.1,6.0,30.00,ESE,112,2.7,3.8,40,0.00,,---,0.00,VWS V14.01,2013-03-04 05:48:00,
2013-03-03 23:53:00,27.1,6.0,30.00,East,90,2.7,4.9,40,0.00,,---,0.00,VWS V14.01,2013-03-04 05:53:00,
2013-03-03 23:59:00,27.1,6.0,30.00,SE,135,2.2,2.9,40,0.00,,---,0.00,VWS V14.01,2013-03-04 05:59:00,